User: anonymous   Login
Location: Unspecified
(0.0000°N, 0.0000°E)
Time: 20:17:27
(UTC+00:00)
Language:

Aussat K2 - Orbit

View from above orbital plane
View from above orbital plane
View from above satellite
View from above satellite

Ground track
Ground track

The orbit data is extracted from the following two-line orbital elements,

1 16275U 85109C   18288.53958565 -.00000233  00000-0  00000+0 0  9995
2 16275  15.1779   3.5092 0007115 271.2094  99.7427  0.99956322110073
Epoch (UTC): 15 October 2018 12:57:00
Eccentricity: 0.0007115
inclination: 15.1779°
perigee height: 35845 km
apogee height: 35905 km
right ascension of ascending node: 3.5092°
argument of perigee: 271.2094°
revolutions per day: 0.99956322
mean anomaly at epoch: 99.7427°
orbit number at epoch: 11007

The dashed part of the orbit path shows where the satellite is in the earth's shadow,  

DLR